RH
92 83 91 97 94 100 100 100 100 100 100 100 100 100 100 100 100 100 100 100 100 100 96 90 95 85 83 79 70 64 54 52 51 51 41 36 46 58 81 74 76 80 80 59
100 94 99 90 87 87 100 100 100 100 100 100 100 100 100 100 100 100 100 100 100 100 100 100 95 94 100 97 82 73 69 65 64 61 61 49 49 60 64 75 87 95 87 100
100 90 92 92 85 90 88 100 100 100 100 100 100 100 100 100 100 100 100 100 100 100 100 99 98 100 100 95 91 88 78 83 83 83 67 69 62 63 68 74 80 100 95 94
98 90 84 84 97 93 95 96 100 100 100 100 100 100 100 100 100 100 100 100 100 100 100 100 97 95 89 88 85 87 92 92 92 96 95 96 88 71 54 45 43 54 56 57
100 100 100 100 90 85 100 96 92 98 100 100 100 100 100 100 100 100 100 100 100 100 100 100 100 100 100 98 96 100 100 100 99 100 100 84 62 64 62 56 70 73 66 84
87 82 90 94 100 100 97 87 81 79 84 99 100 100 100 100 100 100 100 100 100 98 100 100 100 100 100 100 100 100 100 100 99 99 86 72 57 66 71 73 70 76 73 67
86 98 99 94 90 100 100 95 85 86 92 91 88 98 100 100 100 100 100 94 92 86 84 90 100 100 100 100 100 100 91 87 82 72 65 63 63 67 76 74 67 67 75 82
55 71 90 98 99 100 100 100 83 83 80 87 92 91 84 96 100 100 100 100 100 99 97 95 89 84 80 79 79 78 76 74 69 65 58 54 54 58 62 64 63 61 65 74
44 59 88 88 96 100 100 97 99 94 89 87 97 100 90 80 78 92 99 100 97 95 97 97 98 93 84 77 70 64 58 55 52 50 46 44 44 44 48 51 50 55 65 67
54 69 60 80 99 100 100 100 98 86 88 87 88 100 92 85 63 62 68 71 74 74 74 73 74 72 70 65 57 50 49 51 47 43 47 48 46 42 46 58 68 62 59 61
60 63 78 88 100 99 100 100 92 82 82 78 77 73 67 62 60 53 54 57 61 64 68 60 52 58 56 45 38 33 28 29 32 37 43 56 65 61 59 56 54 50 70 81
52 66 88 95 96 93 97 88 72 71 84 78 77 82 66 50 51 54 66 71 62 54 43 44 45 43 40 35 31 25 22 21 26 26 32 42 49 42 41 42 48 60 63 65
59 64 76 74 81 78 77 77 72 73 70 60 87 74 76 78 80 82 85 69 61 74 66 48 37 26 22 19 15 16 21 25 26 26 26 32 39 43 45 47 49 59 67 75
95 100 100 100 90 82 80 85 95 97 80 92 91 100 81 93 95 81 60 67 68 55 45 38 25 18 12 10 6 6 6 8 9 11 16 21 28 39 40 42 48 58 59 70
92 100 96 92 95 95 100 100 91 86 100 86 81 95 89 80 71 68 57 52 54 59 61 44 23 16 7 5 3 3 4 5 5 7 10 13 20 28 40 53 63 66 62 64
95 95 98 100 100 99 99 89 78 83 99 88 82 86 74 63 52 54 61 82 89 79 68 55 25 15 9 4 4 4 4 4 4 6 9 11 14 18 39 52 76 80 71 63
98 92 91 85 74 70 83 92 98 95 96 83 74 61 56 50 60 71 73 85 99 79 67 68 46 30 14 8 8 9 9 9 10 13 16 18 22 36 70 91 100 94 73 70
74 76 78 66 76 98 99 97 97 91 79 72 69 62 52 65 69 78 74 100 100 86 82 81 70 53 38 25 24 28 28 17 29 27 28 40 54 84 100 99 98 97 100 100
69 76 74 84 89 95 88 93 88 75 84 76 63 56 56 62 70 66 81 100 100 68 67 94 80 76 73 60 58 59 62 69 66 67 70 74 94 100 100 100 100 100 100 100
84 82 82 85 88 93 79 74 98 85 69 67 62 65 62 70 85 95 71 100 100 75 65 84 95 90 94 96 82 91 90 100 100 100 100 100 100 100 100 100 100 100 100 100
83 81 80 74 80 78 72 95 93 75 79 80 88 75 76 84 100 96 72 100 100 100 82 79 75 77 98 100 95 88 100 100 100 100 100 100 100 100 100 100 100 100 99 91
80 80 74 75 86 85 84 99 78 73 79 89 100 77 75 90 95 96 90 86 97 97 100 79 75 89 69 72 99 100 58 71 95 100 100 100 100 98 82 92 89 76 69 68
79 77 69 77 78 93 88 90 74 76 84 92 97 100 85 98 98 88 98 83 100 100 100 89 89 80 74 88 67 68 77 73 69 71 79 81 79 81 86 78 75 77 89 90
78 74 65 74 71 86 86 98 76 59 74 85 88 97 100 74 95 97 100 85 82 92 98 92 84 100 85 64 67 66 70 72 74 79 79 87 91 89 88 91 97 100 100 100
79 70 70 70 70 91 100 92 88 70 60 75 78 84 96 87 83 92 96 92 92 96 92 97 87 79 94 100 93 80 92 100 100 100 100 100 100 100 100 100 100 100 100 100
84 80 71 76 72 98 100 100 81 69 62 62 65 80 81 78 71 90 75 82 87 95 98 98 94 94 93 97 100 100 100 100 100 100 100 98 96 93 96 100 99 92 82 78
Wind_Speed
82 78 84 90 94 95 86 83 80 80 78 72 72 69 75 78 71 69 71 72 70 68 70 68 68 69 70 69 70 70 67 65 66 64 64 67 68 65 63 60 60 62 62 60
84 78 79 89 93 93 88 83 83 83 78 74 74 70 75 74 70 70 74 75 74 71 70 70 71 70 69 71 72 72 71 72 67 66 67 66 64 62 63 62 62 66 64 60
88 84 82 82 89 91 90 89 86 82 79 78 77 74 75 76 73 73 76 76 76 75 74 74 73 73 75 76 76 76 76 76 72 70 69 69 72 67 63 64 66 68 68 68
84 84 76 71 80 83 86 90 86 83 81 77 77 73 78 76 75 77 77 77 81 81 81 80 79 80 83 83 83 83 83 80 77 75 73 72 77 78 72 69 67 69 67 68
79 80 77 71 72 79 79 83 90 86 84 80 78 75 78 77 78 78 79 78 81 82 83 83 83 85 87 87 87 87 86 84 84 81 80 81 79 79 76 71 65 66 63 62
80 81 80 79 72 69 73 76 80 89 89 82 82 77 77 80 79 80 81 82 82 83 83 85 86 86 88 89 90 90 89 90 90 90 88 86 83 79 75 74 70 68 69 66
75 82 79 76 74 74 72 70 71 73 75 78 85 83 85 83 83 83 86 87 87 88 88 87 87 90 91 93 95 97 98 100 101 100 96 90 83 80 80 80 79 76 76 72
66 69 75 76 72 70 73 72 70 66 69 73 75 75 83 87 89 89 89 90 90 92 93 94 96 99 102 104 106 108 109 109 109 106 100 93 88 84 83 84 83 80 78 79
52 58 66 71 71 73 71 68 68 67 66 65 68 69 76 81 89 90 89 91 94 96 96 98 100 104 107 109 111 114 116 114 110 106 101 98 93 90 88 87 87 83 83 79
50 57 58 60 68 68 73 72 71 70 67 66 69 72 74 76 79 85 88 90 93 96 99 99 101 104 107 109 112 112 111 109 106 102 98 97 95 92 89 87 87 86 85 74
43 48 56 59 62 61 59 67 76 73 69 70 68 69 72 74 76 78 82 85 88 91 95 97 98 101 104 106 108 110 108 100 97 96 95 94 97 95 92 87 83 73 63 63
37 42 51 56 58 58 57 56 55 53 59 63 64 72 69 64 64 65 65 72 79 86 86 88 93 97 100 101 104 105 102 98 97 94 94 93 92 91 85 76 70 67 65 62
28 28 31 37 42 46 43 42 43 43 45 46 48 48 46 46 50 54 60 66 67 74 81 85 90 91 90 90 90 89 92 97 98 99 95 93 92 90 86 81 73 66 61 58
26 27 27 28 29 30 29 31 32 35 32 35 34 43 37 43 47 54 54 55 59 65 68 75 76 72 65 64 60 62 67 73 77 79 81 83 82 82 81 77 71 68 64 62
25 26 26 26 27 28 29 30 31 30 29 34 30 34 36 37 42 41 43 45 44 49 54 62 61 62 51 42 42 44 48 55 58 60 64 66 67 67 70 68 60 54 55 59
23 23 25 28 27 26 26 26 23 23 25 25 24 27 30 31 34 35 28 26 32 40 42 45 48 39 36 31 28 27 29 32 33 35 38 43 48 49 47 45 36 41 46 51
23 24 25 25 25 22 24 22 20 20 19 18 17 14 21 26 19 16 16 11 25 30 20 21 24 23 21 19 13 15 16 17 19 19 22 26 28 31 30 29 32 31 35 38
26 27 29 26 24 25 23 19 19 19 20 13 13 16 20 12 9 11 13 4 8 5 14 20 23 20 16 13 10 13 14 8 16 12 17 23 28 25 20 18 19 20 13 24
30 32 28 26 23 19 16 19 20 19 15 14 15 15 7 10 12 12 9 6 5 4 10 19 24 28 31 31 33 35 35 32 29 30 32 31 30 24 18 17 15 11 25 36
32 28 24 21 18 15 18 20 18 18 18 18 14 12 9 12 12 15 11 4 7 8 6 12 21 24 29 33 34 41 40 40 38 40 34 28 22 18 13 16 16 22 30 35
26 22 21 17 14 15 21 21 22 20 12 9 6 7 9 10 12 15 12 6 6 8 9 5 9 14 20 26 23 29 34 28 30 26 28 26 25 18 23 22 28 32 35 38
20 20 19 15 13 18 23 25 21 17 15 11 6 8 8 10 9 7 7 7 4 7 9 9 5 4 6 11 18 15 16 20 23 19 17 16 17 18 21 25 28 32 33 34
20 20 18 15 12 18 24 22 22 20 17 12 10 9 9 9 9 6 8 5 5 10 11 8 4 4 2 4 3 5 7 7 4 5 1 8 10 11 16 20 24 27 31 37
20 20 18 14 10 15 25 27 24 21 17 18 15 12 14 13 12 13 9 9 7 9 12 14 10 8 8 5 3 2 2 1 4 10 12 14 17 21 24 26 29 33 38 44
21 20 17 14 10 12 21 27 26 25 23 22 20 17 16 17 11 11 13 13 14 14 12 11 9 12 14 15 13 11 9 12 15 18 20 23 22 23 26 28 32 36 41 45
23 21 18 16 12 13 19 23 22 19 24 22 21 18 20 19 11 10 13 11 13 15 14 16 11 8 7 7 9 11 12 16 21 20 19 21 23 25 28 32 36 41 45 48
Wind_Direction
221 222 224 226 225 223 222 225 226 230 233 232 234 233 238 241 239 241 243 245 248 250 251 253 257 259 261 264 266 266 269 270 272 272 274 276 273 273 274 273 274 274 276 277
221 224 222 225 225 227 224 225 226 229 232 231 235 233 238 244 243 243 245 247 248 249 252 255 257 261 262 264 265 268 271 270 269 273 277 279 274 273 273 271 270 273 274 278
222 223 223 224 224 225 226 225 226 228 231 231 234 235 238 243 244 245 247 249 251 249 252 255 257 259 260 262 264 266 269 270 270 270 272 275 279 273 269 267 267 269 271 275
222 227 226 224 223 225 227 229 229 229 227 230 233 234 240 241 245 247 248 250 250 251 253 254 256 258 260 262 266 269 268 267 267 270 273 272 276 278 273 264 263 269 273 275
218 223 221 223 223 224 227 230 231 232 231 231 233 231 240 241 242 245 249 249 251 253 254 256 260 261 262 264 266 267 267 267 267 267 269 273 276 276 275 271 263 263 267 269
219 221 221 222 224 224 227 230 233 233 233 234 236 234 239 242 242 243 246 248 248 250 252 255 259 262 263 263 262 263 263 265 267 270 271 272 274 273 272 271 266 264 267 267
217 220 222 225 225 225 228 231 233 233 236 238 240 238 236 243 245 245 247 249 252 253 255 257 259 260 260 262 264 264 263 265 268 270 272 272 270 269 268 271 271 269 269 267
214 217 220 222 222 225 230 233 237 238 238 239 242 243 242 244 247 248 248 250 252 255 257 258 259 260 261 263 264 265 265 267 269 269 270 268 266 265 264 266 269 270 270 270
219 217 220 221 224 226 232 232 235 237 239 241 242 245 246 245 246 250 254 256 256 256 258 260 261 261 264 266 266 266 266 268 270 271 271 269 267 266 265 266 269 270 273 271
218 219 221 220 222 227 230 232 236 240 241 242 244 245 247 249 249 250 253 256 258 260 263 265 266 266 267 268 268 268 268 268 269 269 270 270 269 266 265 266 270 271 271 266
213 215 219 220 220 225 231 234 237 240 243 246 250 252 253 254 256 257 256 258 260 263 264 265 267 268 268 268 269 269 269 268 267 267 265 264 266 267 267 269 269 265 259 255
206 214 220 225 228 231 236 238 241 244 248 248 250 253 254 257 258 259 262 263 262 263 266 269 270 269 267 269 269 271 273 273 270 267 266 264 264 264 264 263 261 259 257 254
189 195 202 214 223 228 230 232 235 238 240 241 240 249 255 257 259 261 262 267 273 274 274 274 273 274 277 277 273 269 267 265 264 264 263 262 260 260 260 259 257 255 256 255
176 176 184 190 198 205 211 216 221 226 232 237 242 250 255 260 263 265 273 276 277 279 281 281 283 284 283 280 269 260 258 258 259 259 259 257 255 255 255 254 254 255 253 253
173 178 185 192 200 206 212 221 226 232 236 243 245 250 254 256 264 276 276 279 285 289 290 290 294 291 288 275 265 260 255 253 254 254 254 254 253 248 247 247 247 252 249 247
185 191 199 204 210 212 213 218 217 216 218 235 241 250 266 275 279 278 284 290 297 298 295 306 313 314 303 287 276 269 260 252 248 250 250 250 249 246 240 239 233 240 239 241
200 204 202 199 200 188 188 192 199 212 234 244 256 273 277 277 273 288 289 295 298 302 332 9 343 336 320 282 273 263 252 233 224 221 223 224 219 210 203 210 223 228 234 236
195 187 186 188 171 172 185 198 218 225 218 232 251 269 279 268 286 286 305 319 297 334 29 35 47 50 51 57 81 101 93 139 131 164 168 167 161 150 162 188 212 216 200 264
176 177 176 167 174 185 201 211 208 210 218 238 245 263 275 284 286 305 338 302 302 317 58 48 54 71 70 78 86 90 95 96 112 122 121 116 113 112 126 145 166 209 216 233
167 169 169 175 186 201 204 195 190 204 224 244 255 263 282 307 315 316 310 242 272 309 360 88 70 63 75 78 87 87 88 92 95 97 98 99 108 111 138 216 215 229 238 243
171 174 178 185 200 207 200 196 207 206 208 232 268 280 288 310 310 313 318 213 262 276 307 11 61 81 83 86 83 94 96 99 101 108 125 144 159 163 188 213 226 236 245 253
180 185 190 195 209 209 200 207 213 215 222 223 268 277 284 296 293 306 334 309 265 290 280 320 337 11 82 102 113 112 113 114 115 131 149 162 177 203 219 221 240 256 264 269
189 196 194 207 220 212 214 221 220 217 225 263 266 268 280 273 269 297 304 318 258 237 260 252 311 331 282 168 285 132 129 126 89 68 245 233 236 262 267 267 269 277 280 286
201 206 203 215 224 223 219 226 224 235 233 256 260 260 274 273 251 260 271 286 283 241 248 272 264 262 276 284 271 234 330 323 273 307 320 319 306 297 292 288 286 287 284 280
215 216 216 224 240 240 227 229 240 238 242 249 259 257 267 268 271 264 260 260 273 276 292 300 273 252 256 266 272 266 273 279 295 297 296 293 288 283 282 282 282 282 283 285
220 218 222 236 257 253 231 231 238 243 243 256 259 259 258 265 268 270 260 267 280 279 284 283 299 275 255 266 273 277 273 266 268 277 279 276 278 287 293 295 294 294 296 297